Location: Innsbruck
(47.2657°N, 11.3914°E)
Time: 19:11:41
(UTC+01:00)

BEESAT 3 - Pass Details

Date: 13 December 2021
Orbit: 472 x 512 km, 64.9° (Epoch: 22 January)

Event Time Altitude Azimuth Distance (km) Brightness Sun altitude
Rises 19:21:54 0° 278° (W) 2,581 ? -29.0°
Reaches altitude 10° 19:25:28 10° 314° (NW) 1,713 ? -29.6°
Enters shadow 19:26:13 11° 325° (NW) 1,647 ? -29.7°
